Flag for Turkmenistan Weather past 2 weeks in Ashgabat, Turkmenistan

Now
59 °F

Mostly cloudy.


Feels Like: 60 °F
Forecast: 56 / 79 °F
Wind: 3 mph from Northwest

Location: Ashgabat


UV Index: 5 (Moderate)

Visibility: N/A


Pressure: 29.95 "Hg

Humidity: 34%

Dew point: 30 °F

Location of AshgabatLocation

Historic Weather in Ashgabat

°F

Ashgabat temperature yesterday

Maximum temperature yesterday: 82 °F (at 4:00 PM)
Minimum temperature yesterday: 52 °F (at 7:00 AM)
Average temperature yesterday: 68 °F

Past Weeks' High & Low Weather Summary

 TemperatureHumidityPressure
High90 °F (Apr 9, 1:00 PM)93% (Apr 5, 6:00 AM)30.57 "Hg (Apr 5, 6:00 AM)
Low43 °F (Apr 5, 6:00 AM)9% (Apr 17, 3:30 PM)29.71 "Hg (Apr 9, 12:30 PM)
Average63 °F45%30.07 "Hg
* Reported Apr 4 6:00 AM — Apr 19 6:00 AM, Ashgabat, Weather by CustomWeather, © 2014

Note: Actual official high and low records may vary slightly from our data, if they occured in-between our weather recording intervals... More about our weather records

Advertising

Historic Weather Conditions — Data for Previous 24 hours

 ConditionsComfort  
Time TempWeatherWind HumidityBarometerVisibility
6:00 AM
Apr 19
59 °FMostly cloudy.3 mph34%29.95 "HgN/A
5:00 AM61 °FSprinkles. Mostly cloudy.6 mph31%29.95 "HgN/A
4:00 AM61 °FMostly cloudy.3 mph31%29.95 "HgN/A
3:00 AM57 °FPassing clouds.6 mph44%29.95 "HgN/A
2:00 AM59 °FHaze.1 mph36%29.95 "Hg3 mi
1:00 AM63 °FPassing clouds.3 mph27%29.95 "HgN/A
12:00 AM66 °FPassing clouds.3 mph24%29.95 "HgN/A
11:00 PM
Apr 18
66 °FPassing clouds.6 mph26%29.98 "HgN/A
10:00 PM70 °FPartly cloudy.3 mph23%29.98 "HgN/A
9:00 PM72 °FMostly cloudy.6 mph17%29.98 "HgN/A
8:00 PM77 °FMore clouds than sun.8 mph13%29.98 "HgN/A
7:00 PM79 °FBroken clouds.6 mph13%29.98 "HgN/A
6:00 PM81 °FBroken clouds.6 mph13%29.98 "HgN/A
5:00 PM82 °FPartly sunny.8 mph12%29.98 "HgN/A
4:00 PM82 °FPartly sunny.8 mph11%30.01 "HgN/A
3:00 PM81 °FScattered clouds.8 mph13%30.01 "HgN/A
2:00 PM79 °FScattered clouds.8 mph11%30.04 "HgN/A
1:00 PM77 °FSunny.6 mph11%30.04 "HgN/A
12:00 PM75 °FSunny.6 mph11%30.07 "HgN/A
11:00 AM72 °FSunny.6 mph14%30.09 "HgN/A
10:00 AM68 °FSunny.3 mph18%30.07 "HgN/A
9:00 AM64 °FSunny.3 mph24%30.07 "HgN/A
8:00 AM59 °FSunny.1 mph42%30.07 "HgN/A
7:00 AM52 °FClear.3 mph44%30.07 "HgN/A
Weather by CustomWeather, © 2014

See weather overview